CAPE
1966 2194 2072 1975 2052 2038 1966 2006 1948 1877 1860 1892 1783 1720 1770 1757 1671 1630 1859 1791 1744 1858 2105 2219 2405 2490 2405 2592 2560 2824 3233 3235 3271 3433 3641 3487 3335 3367 3333 3207 3235 3254 3442 3630 3666 3664 3709 3702 3669 3608 3263 2912 2685 2438 2412 2462 2442 2296 2123 1756 1236 1328 1197 1222 1126 1182 1432 1538 1090 873 956 757 920 1357 1250 1286 1540 1554 869 1260 1622 1489 1419 1373 1332
1979 2130 2047 2016 2023 2059 1937 1924 1954 1884 1855 1799 1825 1780 1833 1882 1801 1799 1823 1889 1808 1728 1962 2042 2268 2336 2259 2482 2776 2837 3257 3457 3186 3288 3484 3524 3542 3284 3231 3202 3019 3055 3226 3382 3771 3638 3832 3854 3738 3653 3534 3150 2942 2758 2622 2219 2207 2182 2206 2188 2067 1560 1331 1209 1361 1307 1316 1457 1656 1497 1156 1161 869 1744 1169 1205 1238 1553 1693 1400 1340 1461 1471 1348 1292
1796 2070 2102 2134 2148 2062 1974 2001 1984 1944 1853 1826 1791 1707 1802 1838 1830 1816 1649 1645 1867 1758 1864 1851 2183 2404 2320 2430 2810 2865 3131 3159 3127 3144 3291 3482 3588 3425 3271 3412 3451 3346 3427 3602 3720 3744 3672 3828 3668 3659 3497 3250 3158 2999 2758 2484 2228 2083 2116 2058 2018 1952 1722 1346 1256 1407 1425 1492 1636 1416 1248 1797 1206 1256 1778 1504 1311 1530 1552 1585 1386 1337 1354 1274 1113
1740 2039 2053 1989 2004 2060 2094 2046 1915 1917 1835 1812 1782 1715 1681 1776 1869 1794 1649 1562 1738 1874 1819 1883 2233 2539 2428 2536 2743 2765 2883 2937 2962 3075 3269 3400 3499 3612 3643 3666 3599 3598 3735 3727 3745 3838 3744 3799 3642 3528 3547 3417 3363 3303 3046 2706 2514 2416 2324 2325 2285 2038 1854 1740 1468 1311 1400 1467 1714 1702 1527 1574 1511 1705 1596 1479 1206 1282 1474 1354 1442 1351 1244 1301 1284
1700 1857 1853 1845 1884 2003 1991 1954 1917 1886 1820 1768 1810 1741 1704 1693 1777 1739 1678 1595 1660 1865 1973 2059 2257 2532 2282 2406 2634 2709 2731 2876 2942 2829 2966 3165 3382 3342 3516 3700 3710 3677 3693 3753 3666 3756 3800 3625 3566 3670 3695 3530 3511 3419 3303 3169 2800 2481 2428 2408 2331 2209 2029 1852 1705 1520 1446 1512 1634 1901 2082 1830 1589 1429 1309 1222 1233 1416 1666 1592 1361 1400 1678 1318 985
1658 1751 1750 1749 1864 1896 1979 1923 1854 1840 1804 1813 1791 1767 1737 1695 1719 1769 1734 1744 1739 1787 2015 2083 2142 2436 2384 2389 2580 2790 2829 2923 3009 2992 2780 2957 3198 3222 3326 3580 3545 3656 3682 3620 3683 3696 3583 3693 3608 3656 3625 3536 3456 3472 3568 3442 3215 2843 2647 2522 2411 2250 2163 2100 1937 1803 1691 1658 1698 1772 1942 1908 1887 2035 2003 1729 1326 1192 1233 1490 1844 1765 1525 1293 979
1746 1706 1694 1708 1899 1905 1936 1938 1892 1829 1911 1850 1826 1823 1759 1717 1673 1729 1764 1802 1825 1832 1883 2108 2200 2315 2533 2530 2562 2776 2915 2899 3028 3099 3003 3019 3166 3289 3089 3299 3384 3469 3506 3440 3377 3467 3506 3495 3584 3611 3627 3559 3467 3442 3543 3594 3390 3174 2992 2911 2753 2539 2372 2263 2150 2059 1932 1892 1868 1896 1938 1898 1834 1851 1877 1978 1584 1297 1232 1227 1304 1477 2166 1975 1711
1790 1822 1780 1830 2008 1970 2030 2017 1980 2021 1999 2056 2005 1881 1843 1808 1820 1765 1834 1852 1846 1882 1899 1988 2239 2266 2408 2571 2582 2681 2886 2894 3001 3084 3074 3040 3083 3208 3233 3166 3202 3305 3388 3391 3302 3233 3369 3431 3283 3410 3502 3581 3547 3526 3469 3421 3458 3358 3159 3057 2896 2692 2512 2363 2275 2158 2119 2016 1947 1980 2006 2114 2150 2059 1793 1727 1456 1404 1412 1276 1322 1502 1510 1890 2076
1843 1825 1886 1998 2198 2225 2192 2139 2113 2167 2121 2216 2088 2020 1955 1948 1946 1933 1943 1901 1846 1906 1940 1961 2145 2300 2288 2479 2578 2584 2599 2716 2730 2924 3016 3049 3031 2947 3134 3217 3211 3244 3318 3307 3338 3351 3286 3258 3297 3260 3365 3409 2944 2890 2943 2961 3226 3345 3395 3248 3020 2773 2635 2437 2363 2335 2270 2124 2102 2046 1992 2053 2057 1989 1953 2053 2017 1810 1821 1915 1646 1502 1426 1321 1160
1949 1845 1910 2142 2423 2413 2471 2323 2300 2350 2311 2386 2345 2197 2058 2046 1960 2011 2069 2024 2015 2009 2040 2076 2105 2236 2380 2523 2608 2630 2576 2601 2548 2249 2396 2872 3058 2879 2960 3163 3216 3110 3278 3400 3260 3283 3328 3254 3098 3103 2878 2708 2504 2344 2232 2160 2114 2368 2977 3149 2767 2740 2622 2558 2438 2409 2412 2301 2237 2136 2107 2113 2097 2144 2051 1998 1999 2060 1948 1848 1655 1554 1508 1619 1748
1857 1824 2034 2302 2533 2586 2584 2467 2561 2483 2370 2405 2427 2399 2241 2172 2134 2226 2200 2176 2124 2196 2196 2138 2121 2195 2258 2346 2475 2474 2510 2500 2223 2039 1910 1894 2517 3046 3064 3190 3301 3301 3153 3391 3391 3229 3274 3316 3372 3368 2707 2412 2336 2280 2220 2149 2139 2141 2111 2107 2168 2679 2698 2607 2544 2465 2361 2298 2172 2220 2170 2133 2111 2048 1963 1830 1757 1663 1558 1662 1894 1984 2031 2095 2228
1786 1954 2060 2384 2515 2443 2339 2489 2492 2505 2486 2453 2468 2460 2345 2281 2280 2341 2311 2262 2339 2295 2318 2217 2289 2144 2134 2220 2288 2359 2470 2194 2026 1888 1767 1714 1730 2472 2824 3000 2989 3116 3208 3105 3227 3310 3267 3229 3296 3321 3414 3470 3328 3054 2369 2155 2144 2151 2159 2166 2152 2148 2123 2361 2518 2468 2695 2644 2354 2354 2367 2240 2194 2192 1988 1732 1810 2042 2157 2236 2274 2392 2375 2310 2242
1850 2269 2249 2334 2386 2416 2479 2586 2548 2488 2503 2465 2474 2499 2501 2456 2416 2348 2204 2209 2208 2335 2313 2181 2277 2316 2223 2333 2257 2263 2366 2125 1912 1749 1683 1618 1647 1737 2368 2680 2795 2877 2998 3152 3150 3307 3411 3387 3318 3337 3470 3012 3012 3205 3509 3382 2523 2248 2178 2194 2221 2234 2213 2178 2129 2113 2569 2625 2445 2539 2563 2699 2598 2457 1990 2125 2335 2370 2405 2418 2385 2427 2371 2252 2264
2012 2102 2260 2472 2589 2624 2664 2520 2501 2554 2561 2516 2526 2512 2483 2455 2316 2165 2125 2220 2316 2311 2185 2260 2304 2445 2366 2343 2435 2342 2300 2119 1903 1739 1609 1576 1588 1604 2128 2377 2653 2853 2965 3076 3195 3232 3428 3556 3486 3469 3522 3587 3472 3324 3438 3591 3797 3391 2769 2372 2306 2300 2276 2253 2208 2208 2226 2255 2366 2481 2615 2615 2500 2481 2238 2232 2360 2433 2318 2225 2104 1946 1861 1885 1869
2106 2181 2410 2513 2611 2573 2582 2565 2640 2648 2660 2598 2590 2556 2489 2470 2391 2229 2148 2194 2374 2403 2272 2240 2290 2369 2341 2279 2365 2343 2197 1976 1897 1744 1618 1554 1544 1576 1892 2289 2486 2744 2920 3119 3257 3235 3323 3531 3563 3416 3484 3645 3637 3645 3567 3631 3766 3763 3659 3374 3200 3091 2790 2364 2278 2308 2323 2309 2297 2253 2274 2276 2264 2468 2203 2080 2125 2213 2175 2019 1912 1739 1765 1836 1790
2329 2524 2633 2532 2513 2533 2582 2635 2711 2771 2750 2700 2642 2584 2581 2608 2599 2422 2314 2299 2327 2330 2395 2250 2293 2364 2342 2302 2198 2244 2218 1753 1688 1647 1605 1556 1529 1540 1673 2352 2536 2615 2838 3104 3220 3339 3355 3370 3518 3577 3487 3592 3452 3110 2988 3398 3640 3494 3202 3282 3294 3294 3043 2873 2751 2602 2467 2340 2295 2351 2411 2407 2323 2143 2065 2044 1836 1975 2044 1897 1837 1812 1900 1926 1888
2581 2607 2599 2440 2432 2543 2515 2526 2697 2863 2822 2732 2713 2649 2683 2737 2682 2599 2460 2350 2331 2346 2405 2348 2392 2387 2402 2388 2346 2364 2354 2049 1672 1631 1564 1463 1454 1491 1698 2183 2531 2670 2822 2991 3230 3295 3358 3449 3493 3474 3483 3535 3405 3079 2738 2524 3318 3414 3396 3462 3382 3185 2958 3010 2865 2836 2800 2676 2477 2485 2519 2510 2571 2699 2609 2417 2259 2176 2047 2090 2216 2187 2218 2238 2219
2742 2999 2595 2625 2630 2632 2648 2633 2818 2940 2885 2896 2876 2730 2653 2648 2614 2638 2571 2415 2277 2396 2452 2479 2443 2464 2402 2418 2378 2495 2454 2322 1998 2008 1955 1832 1708 1555 2007 2279 2538 2732 2845 3027 3136 3260 3359 2991 3264 3417 3471 3495 3288 3020 2724 2528 3042 3342 3540 3553 3518 3081 3331 2970 3502 3990 3077 2830 2644 2616 2622 2707 2915 2703 2572 2466 2372 2363 2496 2525 2697 2558 2347 2349 2220
2802 2918 2801 2839 2928 2998 2901 2929 3085 3037 3075 3064 2936 2867 2842 2872 2748 2771 2673 2542 2506 2582 2522 2558 2587 2576 2505 2427 2120 2205 2433 2453 2346 2318 2285 2229 2145 2025 2063 2274 2459 2671 2685 2831 3047 3121 3290 3089 2553 2766 3116 3390 3146 2905 2660 2474 3035 3332 3459 3575 3236 3273 3140 3590 3899 3945 4232 3582 2850 2866 2916 2822 2653 2584 2599 2717 2845 2828 2666 2461 2156 1916 1639 1490 1436
3033 2922 2869 3034 3148 3167 3006 3248 3290 3106 3226 3249 3093 3064 3062 2981 3002 3013 2952 2765 2787 2796 2764 2748 2756 2757 2684 2435 2483 2556 2582 2611 2631 2636 2604 2549 2455 2351 2244 2320 2380 2546 2700 2607 2782 3086 3162 3366 3154 2319 2143 2150 2350 2504 2489 2388 2829 3321 3407 3205 3132 3248 3522 3855 4050 4312 4010 3528 3104 3027 2746 2654 2750 2769 2941 3030 2671 2166 1825 1537 1418 1269 1135 1182 1111
3320 3344 3264 3138 3168 3183 3024 3289 3336 3288 3323 3435 3190 3132 3185 3191 3126 3200 3075 2943 2972 3083 3036 2971 2722 2676 2733 2799 2834 2887 2895 2917 2943 2929 2868 2790 2704 2592 2475 2360 2337 2563 2780 2721 2670 2728 3050 3226 3169 2765 2297 2063 1970 1974 1948 2057 2146 2811 3211 3333 3540 3708 3328 3702 3949 3244 3117 3118 2952 2738 2765 2818 3044 3066 2782 2358 2018 1769 1690 1269 1181 1043 1195 1211 1188
3443 3657 3828 3465 3264 3308 3349 3506 3483 3509 3716 3700 3676 3559 3530 3371 3293 3344 3218 3240 3260 3311 3344 2977 2928 2949 2992 3047 3054 3110 3153 3179 3203 3186 3159 3090 2986 2844 2680 2538 2376 2551 2758 2866 2796 2739 2873 3157 3524 3161 2530 2275 2117 1992 2132 2290 2440 2570 2666 2748 2910 3072 3149 3338 3506 3286 2888 2740 2913 2798 2926 3190 3032 2607 2205 1795 1630 1368 1088 1169 956 817 945 1200 1235
3564 3690 3737 3570 3669 3632 3657 3764 3817 3665 3804 4000 4020 3845 3881 3713 3642 3678 3680 3591 3601 3560 3655 3546 3395 3264 3300 3140 3121 3152 3206 3268 3290 3371 3385 3354 3304 3187 2996 2812 2620 2424 2566 2881 2991 2968 3144 3325 3386 2944 2561 2326 2165 2306 2458 2582 2698 2818 2893 2985 3108 3352 3668 3517 3375 3058 2830 2700 2802 3099 3221 2823 2427 1898 1729 1570 1210 923 751 571 478 392 312 421 535
3782 3652 3726 3797 3848 3728 3857 3992 3938 3788 3940 4080 4017 3978 4048 3950 3898 3929 3964 3810 3768 3819 3729 3651 3596 3398 3427 3257 3250 3307 3422 3382 3416 3442 3464 3459 3419 3361 3228 3044 2826 2648 2512 2545 2879 2999 3067 3322 3429 2880 2457 2318 2495 2635 2756 2835 2916 3010 3064 3197 3380 3646 3582 3091 2898 2788 2692 3121 3266 2917 2564 2048 2002 1687 1373 903 534 368 118 53 81 77 78 67 79
3887 3747 3548 3708 3932 3814 3922 4034 4059 4066 4083 4164 4232 4232 4268 4181 4126 4197 4146 3960 3869 3872 3935 3806 3718 3597 3604 3691 3757 3603 3408 3448 3511 3531 3541 3526 3483 3418 3322 3190 3004 2794 2724 2665 2586 2622 3169 2909 2855 2520 2451 2593 2727 2845 2938 3016 3089 3167 3200 3294 3456 3128 2606 2492 2757 2976 2975 2762 2466 1980 1663 1376 1174 832 481 163 1 0 0 0 0 0 0 1 0
4016 3934 3866 3924 3922 3788 4150 4125 4333 4478 4436 4302 4348 4400 4203 4218 4164 4397 4179 3991 3991 3933 4062 3924 3730 3736 3931 3906 3859 3902 3822 3828 3559 3576 3594 3573 3532 3460 3353 3242 3120 2967 2884 2825 2782 2738 2692 2640 2581 2596 2709 2858 2964 3042 3086 3158 3174 3178 3340 3519 3520 3381 3434 2821 2636 2652 2458 2054 1792 1293 900 555 264 79 1 0 0 0 0 0 0 0 0 0 0
4742 4628 4428 4073 4190 4119 4157 4114 4434 4587 4646 4373 4345 4447 4278 4361 4349 4500 4448 4186 4159 4193 3968 3801 3944 3857 4000 4003 4085 4054 4035 3962 3744 3602 3598 3575 3542 3502 3390 3287 3185 3121 3061 2994 2956 2936 2914 2888 2860 2858 2913 2980 3058 3125 3176 3225 3305 3414 3466 3450 3318 3434 3457 2990 2593 2165 1769 1154 787 512 198 36 0 0 0 0 0 0 0 0 0 0 0 0 1
4691 4480 4174 4105 4247 4339 4536 4228 4334 4346 4543 4455 4347 4394 4471 4464 4582 4708 4582 4490 4511 4399 4286 4262 4094 4064 4014 4053 4159 4218 4113 4022 3893 3571 3577 3557 3552 3514 3470 3393 3342 3288 3246 3201 3190 3203 3195 3123 3023 2987 3054 3128 3168 3204 3264 3307 3250 3293 3398 3506 3608 3378 2858 2246 1931 1371 582 262 32 7 0 0 0 0 0 0 0 0 0 0 0 0 0 1 1
5450 5169 4930 4618 4044 4016 3938 4125 4038 4142 4397 4753 4638 4397 4575 4996 4876 4848 4737 4866 4690 4605 4643 4392 4327 4257 4149 4210 4275 4353 4272 4105 4091 3487 3457 3498 3531 3567 3570 3545 3505 3484 3450 3432 3424 3397 3334 3265 3258 3225 3205 3222 3228 3186 3212 3306 3451 3386 3602 3626 3152 2531 2198 1825 983 146 17 0 0 0 0 0 0 0 0 0 0 0 0 0 1 2 0 1 1
5589 5387 5339 5118 4957 4424 3992 3846 4027 4210 4181 4389 3733 3623 3713 3932 4160 4188 4932 4479 4203 4031 4043 4426 4411 4357 4239 4314 4383 4518 4529 4460 3735 3584 3632 3649 3670 3671 3680 3668 3657 3644 3663 3648 3635 3610 3521 3441 3369 3333 3309 3315 3320 3358 3490 3496 3521 3646 3363 2872 2433 2055 1544 720 0 0 0 0 0 0 0 0 0 0 0 0 0 0 0 0 0 1 1 0 0
5539 5491 5587 5536 5403 5300 4817 4598 4875 4891 4402 4074 3224 3158 3216 3283 3512 3716 3785 3892 3864 3739 3715 3678 3658 3753 4474 4548 4594 3594 3535 3547 3681 3809 3866 3868 3854 3842 3837 3850 3877 3892 3894 3833 3767 3698 3637 3454 3398 3419 3464 3505 3597 3623 3567 3652 3577 3119 2662 2424 2076 1536 524 0 0 0 0 0 0 0 0 0 0 0 0 0 0 0 0 0 0 1 1 1 0
5326 5216 5277 4764 4591 5028 5392 5151 4747 4561 4054 3596 3390 3218 3053 3073 3017 3204 3432 3594 3614 3684 3731 3727 3720 3726 3750 3893 4010 3742 3673 3794 3944 4074 4142 4158 4134 4087 4052 4034 4048 4053 4058 3991 3928 3857 3750 3674 3639 3662 3752 3755 3695 3607 3542 3365 3069 2914 2539 2106 1567 815 0 0 0 0 0 0 0 0 0 0 0 0 0 0 0 0 0 0 0 0 0 0 0
4648 4828 4917 5040 4985 4578 4900 4675 4534 4298 4072 3736 3561 3395 3285 3123 3196 3099 3035 3232 3439 3572 3646 3697 3744 3789 3801 3809 3804 3793 3848 4055 4205 4304 4342 4357 4353 4323 4296 4258 4215 4168 4124 4068 3971 3973 3938 3864 3830 3894 3773 3729 3666 3492 3277 3151 2962 2149 1854 1484 927 0 0 0 0 0 0 0 0 0 0 0 0 0 0 0 0 0 0 0 0 0 0 0 0
4246 4432 4553 4844 5033 4935 4730 4531 4515 4559 4566 4441 4218 4013 3776 3624 3514 3424 3434 3263 3266 3457 3598 3699 3761 3794 3826 3875 3898 3909 4024 4279 4398 4510 4568 4578 4542 4504 4456 4394 4325 4256 4182 4132 4116 4052 3990 3928 3746 3571 3607 3490 3322 3176 3130 2837 2141 2014 1666 968 0 0 0 0 0 0 0 0 0 0 0 0 0 0 0 0 0 0 0 0 0 0 0 0 0
3456 3575 3760 4110 4788 4776 4567 4311 4318 4473 4488 4574 4591 4440 4291 4135 3977 3897 3792 3722 3718 3664 3594 3631 3739 3851 3927 3948 3998 4117 4334 4417 4552 4667 4767 4772 4708 4637 4552 4477 4383 4278 4185 4016 3903 3837 3830 3762 3637 3563 3438 3267 3154 2874 2338 2199 2224 1866 881 0 0 0 0 0 0 0 0 0 0 0 0 0 0 0 0 0 0 0 0 0 0 0 0 0 0
2837 3132 3385 3694 3771 3945 4196 4222 3961 4140 4355 4450 4550 4627 4582 4422 4317 4173 4105 4080 4026 4010 3995 3943 3917 3942 4023 4160 4242 4408 4503 4509 4547 4666 4824 4868 4747 4641 4552 4390 4277 4163 4053 3914 3782 3612 3466 3403 3279 3200 3165 2832 2266 2244 2267 2184 1746 778 0 0 0 0 0 0 0 0 0 0 0 0 0 0 0 0 0 0 0 0 0 0 0 0 0 0 0
2107 2453 2705 3174 3722 3617 3778 3875 3744 3703 3927 4206 4429 4549 4588 4600 4552 4467 4393 4309 4276 4282 4238 4226 4158 4122 4196 4350 4526 4628 4627 4692 4775 4772 4772 4745 4701 4666 4457 4363 4236 4048 3940 3805 3672 3323 3140 3046 2992 2705 2394 2058 1888 1815 1656 1226 282 0 0 0 0 0 0 0 0 0 0 0 0 0 0 0 0 0 0 0 0 0 0 0 0 0 0 0 0
1840 2037 2417 2905 3532 3447 3643 3540 2683 3175 3553 3828 4120 4360 4484 4550 4595 4579 4590 4494 4482 4462 4445 4400 4355 4316 4347 4542 4586 4720 4739 4791 4924 4964 4852 4743 4493 4489 4436 4222 4072 3984 3794 3580 3040 3054 3049 2681 2404 2226 2016 1941 1866 1556 902 0 0 0 0 0 0 0 0 0 0 0 0 0 0 0 0 0 0 0 0 0 0 0 0 0 0 0 0 0 0
1736 1503 1206 1585 2267 3167 3053 2766 2410 2634 3172 3460 3742 4048 4383 4421 4465 4526 4569 4554 4480 4410 4384 4422 4432 4391 4400 4476 4538 4593 4721 4817 4619 4688 4740 4736 4546 4241 4167 4142 3804 2947 2824 2978 3097 2931 2569 2262 1980 1868 1850 1767 1632 989 0 0 0 0 0 0 0 0 0 0 0 0 0 0 0 0 0 0 0 0 0 0 0 0 0 0 0 0 0 0 0
1494 1649 1799 1479 2170 2058 2452 2504 2392 2417 2486 2750 3374 3665 3886 4165 4224 4251 4317 4398 4426 4409 4338 4376 4473 4493 4424 4378 4413 4324 4279 4344 4284 4333 4394 4486 4287 3596 3203 3477 3054 3233 3048 2856 2731 2586 2354 2258 2195 2301 2323 1991 819 0 0 0 0 0 0 0 0 0 0 0 0 0 0 0 0 0 0 0 0 0 0 0 0 0 0 0 0 0 0 0 0
1369 1577 1717 1530 1749 2009 2054 1943 2199 2257 2128 2296 2557 3010 3336 3573 3678 3722 3792 3942 4051 4092 4095 4089 4176 4239 4383 4417 4248 4205 4180 4044 3945 3878 3672 2890 2754 2525 2467 2337 2128 2167 1991 2207 2243 1641 1362 1487 1433 1446 1569 479 0 0 0 0 0 0 0 0 0 0 0 0 0 0 0 0 0 0 0 0 0 0 0 0 0 0 0 0 0 0 0 0 0
944 1289 1572 1740 1471 1847 1906 1774 1683 1753 1825 2029 2203 2204 2391 2987 3231 3471 3720 3858 3919 3957 4055 4049 4036 4051 4192 4353 4059 3906 3957 3928 3886 3619 3286 2947 2586 2322 2185 2093 1993 1906 1888 1631 1396 1405 1290 1297 1352 1043 0 0 0 0 0 0 0 0 0 0 0 0 0 0 0 0 0 0 0 0 0 0 0 0 0 0 0 0 0 0 0 0 0 0 0
635 922 1383 1497 1558 1637 1554 1550 1612 1661 1724 1680 1551 1828 1887 2088 2766 3110 3390 3604 3762 3952 3939 3885 3766 3647 3785 4019 3858 3583 3332 3243 3289 3187 2793 2977 2044 1732 1910 1959 1902 1756 1572 1356 1171 878 432 0 0 0 0 0 1 0 0 0 0 0 0 0 0 0 0 0 0 0 0 0 0 0 0 0 0 0 0 0 0 0 0 0 0 0 0 0 0
332 558 795 1007 1175 1288 1354 1425 1304 1306 1387 1534 1540 1563 1711 1886 2033 2598 2898 3162 3399 3492 3782 3744 3608 3393 3423 3510 3062 3030 2984 2765 2371 1538 1456 902 785 852 987 1050 1061 939 872 622 0 1 0 1 1 1 1 1 1 0 0 0 0 0 0 0 0 0 0 0 0 0 0 0 0 0 0 0 0 0 0 0 0 0 0 0 0 0 0 0 0
63 428 585 641 716 815 933 931 1088 1409 1506 1269 1181 1257 1396 1543 1635 1834 2025 2325 2666 2979 3282 3419 3348 3084 2997 3142 3025 2802 2532 2237 1824 1185 742 639 605 444 366 221 284 348 272 0 0 0 0 0 0 0 0 0 0 0 0 0 0 0 0 0 0 0 0 0 0 0 0 0 0 0 0 0 0 0 0 0 0 0 0 0 0 0 0 0 0
0 0 356 548 624 704 830 943 1002 1026 1106 1078 1092 1110 1212 1344 1548 1678 1880 1999 2213 2420 2699 2952 3171 3037 2863 2886 2889 2976 2562 1926 1506 1336 1235 1020 807 614 640 768 865 957 994 878 723 475 148 0 0 0 0 0 0 0 0 0 0 0 0 0 0 0 0 0 0 0 0 0 0 0 0 0 0 0 0 0 0 0 0 0 0 0 0 0 0
0 0 0 3 414 552 646 740 832 907 956 921 910 928 1063 1199 1312 1422 1458 1553 1682 1896 2185 2397 2584 2782 2860 2842 2606 2630 2698 2412 1409 813 728 711 616 517 496 571 683 752 818 689 468 109 0 0 0 0 0 0 0 0 0 0 0 0 0 0 0 0 0 0 0 0 0 0 0 0 0 0 0 0 0 0 0 0 0 0 0 0 0 0 0
0 0 49 398 421 423 505 583 717 833 894 885 851 801 870 993 1140 1304 1369 1363 1321 1386 1547 1741 2074 2226 2329 2366 2257 2187 2052 1886 1248 996 691 429 466 501 566 591 591 637 641 439 18 0 0 0 0 0 0 0 0 0 0 0 0 0 0 0 0 0 0 0 0 0 0 0 0 0 0 0 0 0 0 0 0 0 0 0 0 0 0 0 0
0 46 169 303 405 524 571 559 556 670 748 762 783 797 824 886 961 1101 1138 1129 1150 1226 1296 1493 1576 1596 1629 1740 1790 1687 1040 853 709 622 582 414 479 522 487 483 472 437 424 220 0 0 0 0 0 0 0 0 0 0 0 0 0 0 0 0 0 0 0 0 0 0 0 0 0 0 0 0 0 0 0 0 0 0 0 0 0 0 0 0 0
0 32 42 158 313 483 600 676 643 605 609 632 644 687 688 686 688 772 867 1080 1263 1338 1339 1212 1090 1022 1158 1210 1066 961 760 726 696 634 541 442 388 353 331 306 275 0 0 0 0 0 1 2 3 1 1 0 0 0 0 0 0 0 0 0 0 0 0 0 0 0 0 0 0 0 0 0 0 0 0 0 0 0 0 0 0 0 0 0 0
5 2 4 11 42 315 496 635 699 677 658 651 636 615 613 596 697 849 821 751 880 1151 1245 1118 936 901 973 918 756 549 446 406 441 85 8 4 246 79 0 45 2 0 1 1 3 3 2 1 1 0 1 2 3 2 2 2 0 0 0 0 0 0 0 0 0 0 0 0 0 0 0 0 0 0 0 0 0 0 0 0 0 0 2 1 0
Wind_Speed
13 16 18 17 17 15 15 15 12 13 11 11 11 11 12 12 11 10 10 8 7 5 4 5 5 6 7 6 6 5 4 3 2 1 1 3 3 4 5 6 8 8 7 8 8 8 8 9 10 11 11 11 8 5 4 4 3 4 4 5 7 6 6 8 11 15 14 7 7 8 5 5 7 7 8 8 9 11 15 15 16 16 17 18 18
13 16 17 18 15 15 15 16 14 14 11 11 11 12 13 13 12 12 9 9 8 5 5 5 5 5 5 5 4 3 2 2 2 3 3 4 5 5 5 6 7 8 7 7 8 7 7 8 8 9 10 11 10 8 5 5 4 4 3 4 6 6 4 7 9 10 15 7 6 4 6 6 7 7 8 8 9 11 14 15 16 19 19 19 19
13 17 18 18 16 16 16 17 16 12 10 12 11 12 13 14 14 12 11 10 9 7 7 6 6 5 5 5 4 3 3 3 4 4 5 6 6 7 7 8 8 7 7 7 6 6 6 6 7 8 7 8 9 8 7 5 5 5 5 5 6 7 4 5 7 9 11 11 6 7 5 5 7 6 8 9 10 12 14 16 19 21 22 23 22
15 17 17 16 17 18 17 17 14 12 11 12 12 12 14 15 14 12 12 11 10 9 8 7 8 7 6 6 5 5 4 4 4 5 5 6 7 7 8 9 8 7 7 6 6 6 6 5 5 6 6 6 6 6 5 4 3 4 5 5 6 7 6 3 5 7 8 10 8 5 4 4 6 9 11 13 14 17 19 19 22 23 24 26 27
15 15 15 15 16 16 16 16 14 12 11 13 12 13 14 15 16 13 12 11 10 11 10 9 9 9 8 7 6 5 4 4 5 4 4 5 5 6 7 8 8 8 6 6 5 5 5 5 3 3 4 4 4 5 4 4 3 3 5 6 7 7 6 5 5 4 6 8 8 4 4 7 9 11 13 13 14 17 21 23 24 24 26 27 27
15 16 15 15 16 15 15 15 13 12 12 13 13 14 15 16 16 16 13 11 11 11 10 11 10 9 9 8 7 6 6 6 6 6 5 4 5 5 6 6 7 7 6 6 6 6 4 5 4 2 3 3 3 3 3 3 2 4 5 6 7 7 6 5 4 5 6 7 7 6 9 11 11 13 16 20 18 17 19 22 25 28 29 27 28
17 17 16 14 15 14 15 15 16 15 16 16 17 17 16 16 16 15 15 13 11 11 11 11 12 11 10 9 7 7 7 7 8 8 7 5 5 5 5 6 6 7 7 6 6 6 5 6 5 4 3 3 3 3 2 2 3 5 5 6 7 6 5 4 3 5 6 7 8 9 9 13 16 14 17 23 23 23 22 21 23 26 29 31 28
18 19 18 16 15 13 14 17 18 19 20 20 18 17 17 18 17 17 17 14 12 11 11 12 13 13 11 10 8 8 8 8 9 10 9 8 7 7 8 8 8 8 7 7 6 6 6 7 6 5 4 4 4 3 2 3 4 6 5 5 5 4 4 3 3 5 7 8 9 9 11 12 14 16 18 23 22 24 28 28 23 22 27 31 33
19 20 19 17 16 15 17 18 20 21 22 21 19 18 18 19 19 19 19 16 16 13 13 13 13 13 12 10 9 9 9 8 9 11 12 11 10 10 11 11 10 9 7 6 6 6 6 6 7 6 6 6 6 5 2 2 5 6 5 3 3 2 2 3 4 5 7 10 11 13 14 15 15 17 19 22 24 23 25 30 28 27 29 29 29
20 19 18 18 19 20 20 20 20 21 22 21 20 19 19 20 20 19 19 17 17 17 15 14 13 13 12 11 10 10 9 9 10 14 15 14 13 12 12 12 12 10 9 7 5 5 6 6 7 6 7 8 8 7 5 4 5 5 4 3 4 3 3 4 6 8 10 12 14 16 16 16 17 21 22 22 23 24 26 30 30 30 31 29 25
21 18 17 19 22 23 22 21 21 20 20 20 21 20 19 21 20 20 19 18 16 17 16 14 13 13 12 11 9 9 8 9 13 18 18 17 14 13 13 13 13 12 11 9 7 6 6 7 7 8 9 7 6 6 4 5 6 6 6 6 5 5 4 6 8 10 11 12 14 17 19 17 19 22 23 23 24 27 29 33 33 31 30 27 24
19 18 19 23 24 22 20 20 20 20 21 20 20 20 20 20 20 19 18 17 18 17 15 14 13 12 12 9 7 7 7 9 16 18 19 19 17 13 12 12 12 12 11 10 8 7 6 7 8 8 7 7 7 7 4 4 5 5 8 11 12 12 12 12 11 12 14 15 14 15 18 21 21 26 27 27 27 29 32 34 35 33 30 31 34
21 21 22 24 23 22 22 21 20 20 20 20 21 22 20 19 18 17 15 16 16 15 13 12 11 10 9 7 6 6 7 12 17 18 19 19 17 14 11 11 11 11 11 10 8 7 8 8 8 8 10 12 10 5 5 4 2 8 9 12 14 16 17 19 19 17 16 16 15 14 18 22 24 26 32 32 29 28 30 34 36 35 35 36 37
23 22 23 23 23 23 22 21 20 20 21 21 22 20 18 16 15 15 15 15 14 12 10 9 10 9 8 8 8 8 8 13 18 17 18 18 18 17 11 11 10 10 9 8 8 7 7 8 8 8 9 11 9 6 5 4 4 3 5 10 13 17 20 22 23 25 24 22 20 19 22 28 27 28 36 38 32 30 32 33 34 36 38 38 35
25 24 24 23 24 23 20 19 19 20 20 20 20 18 16 15 14 13 13 12 11 11 10 8 9 9 9 9 9 9 10 13 18 18 18 19 19 18 13 10 9 8 8 7 6 6 7 8 8 7 9 9 9 9 7 6 5 3 1 5 8 10 13 19 24 25 25 27 27 28 26 29 31 31 34 35 36 36 35 36 35 35 34 32 32
26 26 25 23 22 20 19 18 19 19 18 18 16 15 14 14 13 13 13 13 13 13 12 11 10 10 10 9 9 9 11 16 19 20 20 20 22 18 14 11 9 8 7 7 6 7 7 7 8 8 9 9 9 12 10 8 6 2 2 5 6 7 11 17 23 24 26 28 30 30 29 30 32 33 36 41 42 42 34 33 38 36 34 34 34
25 24 22 20 19 18 17 16 17 17 17 15 14 14 14 14 14 16 14 13 13 12 12 12 13 13 11 11 10 11 12 17 21 21 22 24 24 18 15 12 10 8 7 7 7 6 7 7 8 10 10 10 11 16 14 14 8 5 4 5 7 7 9 12 22 30 32 33 32 32 33 32 30 33 38 48 53 50 39 35 37 43 42 40 39
24 24 21 20 18 17 17 16 16 16 16 13 13 14 15 15 14 15 13 13 12 13 14 15 14 14 12 11 12 13 14 20 25 24 25 28 25 20 16 13 10 10 8 8 8 8 7 8 9 10 10 11 13 18 18 19 12 10 8 7 7 8 9 11 14 22 34 34 33 33 33 33 34 35 38 46 58 57 55 52 49 49 50 49 48
23 22 20 20 20 19 17 17 17 16 15 15 16 15 15 15 15 15 14 13 13 14 15 14 14 14 13 12 15 14 15 20 27 26 27 28 24 18 16 12 11 10 11 10 10 10 10 12 11 10 11 12 13 19 22 23 17 14 12 10 8 9 10 12 13 13 18 24 30 35 35 36 36 38 43 50 58 61 58 56 51 52 52 50 49
22 23 23 22 21 20 19 18 18 17 17 17 17 16 17 16 14 14 14 13 13 12 12 12 11 13 14 13 15 14 15 17 26 29 29 29 26 19 15 13 10 11 12 12 12 12 12 13 16 14 9 9 11 17 23 25 21 19 16 12 10 11 14 14 13 17 18 22 27 33 31 31 32 35 38 41 49 57 56 54 51 49 48 48 47
28 28 25 22 21 20 20 19 18 17 17 16 16 15 16 15 14 13 12 12 12 11 10 11 11 11 12 13 12 13 16 17 23 31 30 29 26 21 15 11 12 14 14 14 13 12 14 16 16 18 16 12 12 14 24 26 23 21 19 16 15 15 18 16 15 20 24 22 25 31 32 32 32 34 37 40 38 39 44 50 53 53 50 47 46
29 28 26 22 20 19 19 19 18 18 17 18 17 16 15 14 14 13 13 13 12 11 11 11 11 9 10 10 11 12 15 18 18 29 30 29 26 23 15 12 14 15 15 14 14 14 15 17 18 20 22 19 17 17 23 28 27 27 24 21 15 21 20 19 21 27 28 26 27 30 31 31 31 32 36 39 37 38 39 41 43 44 46 47 46
27 26 24 21 20 19 18 18 19 19 19 17 15 15 16 15 14 15 15 14 13 12 12 12 11 9 9 10 11 12 12 16 18 21 27 28 26 22 17 12 16 16 14 14 16 17 19 19 19 22 27 25 23 23 25 29 33 30 28 27 24 29 22 21 25 29 28 28 28 28 29 33 35 35 38 39 38 38 38 39 40 42 44 44 43
27 25 23 21 20 19 18 18 18 19 18 18 17 16 17 16 16 17 17 16 15 13 12 10 9 9 8 8 10 12 13 12 18 19 23 26 24 23 18 13 14 16 15 15 17 19 20 20 22 28 30 30 28 27 27 35 34 34 34 34 38 38 28 22 23 28 31 31 33 32 33 35 37 37 39 40 39 37 36 nan nan nan nan nan nan
27 25 23 22 22 21 20 20 19 20 20 20 20 19 19 20 19 18 17 16 16 14 13 13 11 9 10 11 12 14 14 15 14 20 23 25 24 22 19 16 14 14 16 16 18 19 28 34 38 37 35 34 34 34 35 36 36 40 41 44 48 46 37 29 27 31 34 36 36 36 37 39 39 39 39 39 nan nan nan nan nan nan nan nan nan
28 26 26 26 24 23 22 21 22 22 22 23 22 22 22 22 21 21 20 19 18 15 16 16 13 12 14 14 15 16 17 17 16 19 23 22 21 21 20 18 16 16 16 19 27 31 35 36 39 40 39 39 38 37 38 40 41 44 46 48 45 48 45 39 33 35 36 38 39 41 42 42 41 nan nan nan nan nan nan nan nan nan nan nan nan
32 31 30 29 28 27 25 26 26 26 25 25 25 25 25 24 24 24 23 22 21 20 19 18 19 19 19 18 19 20 20 20 20 21 24 25 22 22 20 18 17 19 20 19 25 28 33 33 34 35 37 37 39 42 44 45 44 43 42 41 42 44 46 45 43 42 42 42 42 44 44 nan nan nan nan nan nan nan nan nan nan nan nan nan nan
37 35 33 34 34 32 31 30 30 30 29 29 28 27 27 26 26 26 25 25 25 25 24 25 25 24 23 23 23 23 23 24 24 24 24 25 25 25 25 23 24 24 22 22 23 26 30 35 37 36 37 37 39 39 40 41 41 42 41 41 42 43 45 46 45 45 45 47 nan nan nan nan nan nan nan nan nan nan nan nan nan nan nan nan nan
43 41 41 40 38 38 35 34 32 33 34 33 38 41 36 32 29 28 28 29 28 28 29 28 28 27 27 27 27 27 27 27 27 28 26 27 27 26 27 26 25 25 23 29 32 31 30 29 29 31 32 34 35 37 40 41 41 41 43 44 45 47 48 49 49 49 nan nan nan nan nan nan nan nan nan nan nan nan nan nan nan nan nan nan nan
41 39 38 39 39 40 40 38 38 38 37 38 43 44 48 46 44 39 35 40 37 32 33 30 30 31 30 29 31 31 30 30 33 33 30 29 28 26 27 29 30 28 34 39 35 33 31 27 27 28 29 30 32 35 40 41 42 43 44 46 47 49 50 51 nan nan nan nan nan nan nan nan nan nan nan nan nan nan nan nan nan nan nan nan nan
42 40 40 41 40 41 42 43 44 45 44 45 46 46 45 48 53 51 47 44 40 37 35 33 35 36 35 34 37 39 38 42 41 37 33 30 30 28 28 31 36 40 45 41 35 33 35 32 31 32 33 33 35 39 42 43 44 46 47 48 49 51 52 nan nan nan nan nan nan nan nan nan nan nan nan nan nan nan nan nan nan nan nan nan nan
42 43 45 45 44 43 43 46 48 49 49 50 49 47 46 47 47 53 53 50 50 48 44 41 38 36 34 34 38 42 42 41 41 41 38 34 32 33 36 40 42 44 42 42 38 36 35 34 36 36 38 40 42 43 45 46 47 48 50 51 52 52 nan nan nan nan nan nan nan nan nan nan nan nan nan nan nan nan nan nan nan nan nan nan nan
40 43 45 45 46 46 45 46 47 48 49 49 48 48 47 46 47 48 51 54 54 55 54 53 50 45 39 35 37 42 43 45 46 47 47 45 45 44 44 45 45 44 45 38 38 39 40 42 43 43 44 45 46 47 48 49 49 50 52 53 54 nan nan nan nan nan nan nan nan nan nan nan nan nan nan nan nan nan nan nan nan nan nan nan nan
40 42 43 43 44 45 45 45 46 47 47 47 48 47 46 46 46 49 50 49 51 54 58 59 57 53 53 50 45 45 51 52 52 53 53 52 51 50 50 46 47 44 40 38 41 43 44 46 46 47 48 50 50 51 51 51 51 52 54 55 nan nan nan nan nan nan nan nan nan nan nan nan nan nan nan nan nan nan nan nan nan nan nan nan nan
40 41 42 41 42 42 43 44 44 45 45 44 44 43 45 44 45 46 46 47 47 46 47 51 55 57 49 48 48 47 48 49 50 49 49 49 50 51 52 49 46 42 39 41 44 46 47 48 49 50 51 52 52 52 53 53 53 54 55 nan nan nan nan nan nan nan nan nan nan nan nan nan nan nan nan nan nan nan nan nan nan nan nan nan nan
40 39 39 39 39 40 40 40 41 42 42 42 41 40 39 39 41 41 41 41 42 43 44 45 44 45 47 48 47 43 43 44 45 45 45 45 46 46 42 40 42 41 42 43 46 49 50 51 52 52 52 53 53 54 54 55 55 56 nan nan nan nan nan nan nan nan nan nan nan nan nan nan nan nan nan nan nan nan nan nan nan nan nan nan nan
41 39 38 37 36 36 37 37 37 38 39 39 39 37 36 35 36 37 37 38 39 39 40 39 38 39 41 41 43 45 44 44 44 44 44 45 39 35 39 40 41 43 44 45 47 49 50 50 51 52 52 53 54 55 56 56 56 nan nan nan nan nan nan nan nan nan nan nan nan nan nan nan nan nan nan nan nan nan nan nan nan nan nan nan nan
40 38 35 34 33 33 34 35 37 37 37 37 36 35 34 34 34 34 35 37 37 37 37 37 36 36 37 38 38 39 43 46 48 46 42 38 38 44 45 45 45 46 49 49 49 50 50 49 48 49 50 52 53 53 54 nan nan nan nan nan nan nan nan nan nan nan nan nan nan nan nan nan nan nan nan nan nan nan nan nan nan nan nan nan nan
39 36 33 32 31 32 33 34 35 34 36 36 37 35 35 36 36 36 38 38 38 37 38 37 37 38 39 39 40 43 45 44 43 44 43 43 45 48 50 49 50 52 51 52 51 50 49 49 48 49 49 50 50 50 nan nan nan nan nan nan nan nan nan nan nan nan nan nan nan nan nan nan nan nan nan nan nan nan nan nan nan nan nan nan nan
40 36 34 31 31 32 31 32 33 34 34 35 37 37 38 36 37 39 39 40 40 40 38 38 39 41 41 41 42 42 44 46 48 50 50 49 50 51 53 53 52 51 51 52 51 50 50 50 50 50 51 51 52 nan nan nan nan nan nan nan nan nan nan nan nan nan nan nan nan nan nan nan nan nan nan nan nan nan nan nan nan nan nan nan nan
40 37 34 33 33 32 32 31 32 32 34 35 37 38 39 39 40 43 43 45 45 43 43 45 45 45 44 47 49 50 50 51 52 54 55 54 54 53 53 53 52 52 53 54 54 52 52 52 51 51 52 53 nan nan nan nan nan nan nan nan nan nan nan nan nan nan nan nan nan nan nan nan nan nan nan nan nan nan nan nan nan nan nan nan nan
42 39 36 35 33 32 33 32 33 33 34 35 36 37 39 41 43 45 46 47 47 48 49 50 50 49 51 57 59 61 57 56 56 57 57 58 59 59 57 55 56 58 58 57 56 56 55 54 53 53 nan nan nan nan nan nan nan nan nan nan nan nan nan nan nan nan nan nan nan nan nan nan nan nan nan nan nan nan nan nan nan nan nan nan nan
44 42 40 38 36 35 34 35 35 35 34 34 36 39 42 44 45 47 49 49 50 51 53 54 54 55 55 55 59 61 57 57 57 59 58 59 58 55 55 55 58 62 63 61 59 58 57 nan nan nan nan nan nan nan nan nan nan nan nan nan nan nan nan nan nan nan nan nan nan nan nan nan nan nan nan nan nan nan nan nan nan nan nan nan nan
47 46 44 42 40 38 37 38 39 40 39 38 37 38 41 44 46 47 49 51 52 53 54 55 56 56 57 57 56 60 60 61 58 56 55 53 50 49 48 49 50 50 51 54 nan nan nan nan nan nan nan nan nan nan nan nan nan nan nan nan nan nan nan nan nan nan nan nan nan nan nan nan nan nan nan nan nan nan nan nan nan nan nan nan nan
nan 50 49 48 47 45 44 44 47 49 48 45 42 40 40 41 44 46 49 51 53 54 54 56 57 58 59 59 59 62 62 62 61 61 58 57 57 55 53 53 51 49 50 nan nan nan nan nan nan nan nan nan nan nan nan nan nan nan nan nan nan nan nan nan nan nan nan nan nan nan nan nan nan nan nan nan nan nan nan nan nan nan nan nan nan
nan nan 56 56 55 53 51 49 49 51 53 53 51 48 45 44 44 45 48 51 53 54 56 57 57 58 59 60 59 60 62 64 64 63 63 63 63 59 57 56 55 55 56 56 57 56 56 nan nan nan nan nan nan nan nan nan nan nan nan nan nan nan nan nan nan nan nan nan nan nan nan nan nan nan nan nan nan nan nan nan nan nan nan nan nan
nan nan nan nan 59 58 57 55 55 57 59 59 59 57 54 51 48 48 49 51 55 58 57 58 60 60 61 61 62 65 64 64 63 63 64 64 63 62 61 60 60 59 59 59 59 58 nan nan nan nan nan nan nan nan nan nan nan nan nan nan nan nan nan nan nan nan nan nan nan nan nan nan nan nan nan nan nan nan nan nan nan nan nan nan nan
nan nan nan 64 63 61 59 59 61 63 63 63 62 61 58 57 55 53 51 54 58 60 62 60 60 61 63 65 65 66 67 67 67 66 65 65 65 65 65 66 65 65 65 65 nan nan nan nan nan nan nan nan nan nan nan nan nan nan nan nan nan nan nan nan nan nan nan nan nan nan nan nan nan nan nan nan nan nan nan nan nan nan nan nan nan
nan nan 70 69 67 65 63 63 64 65 66 67 69 68 65 63 59 57 57 58 60 59 60 63 65 65 66 66 67 69 70 71 71 71 70 69 69 69 70 69 68 67 66 66 nan nan nan nan nan nan nan nan nan nan nan nan nan nan nan nan nan nan nan nan nan nan nan nan nan nan nan nan nan nan nan nan nan nan nan nan nan nan nan nan nan
nan nan nan 73 72 70 67 65 65 66 66 67 67 66 66 66 65 63 63 62 62 63 65 66 65 67 70 71 73 72 73 73 74 75 74 73 73 72 70 70 68 nan nan nan nan nan nan nan nan nan nan nan nan nan nan nan nan nan nan nan nan nan nan nan nan nan nan nan nan nan nan nan nan nan nan nan nan nan nan nan nan nan nan nan nan
nan nan nan nan nan 71 65 62 63 64 65 66 65 64 64 62 60 61 61 62 64 65 67 67 67 67 69 69 71 73 74 75 76 nan nan nan 72 nan nan nan nan nan nan nan nan nan nan nan nan nan nan nan nan nan nan nan nan nan nan nan nan nan nan nan nan nan nan nan nan nan nan nan nan nan nan nan nan nan nan nan nan nan nan nan nan
Wind_Direction
226 214 210 202 200 197 193 194 193 196 192 190 184 186 192 192 190 182 190 187 197 191 172 161 153 146 137 141 130 135 133 124 124 96 45 40 34 41 43 44 46 52 42 44 34 26 33 42 48 48 44 51 60 80 111 122 123 130 132 122 115 111 103 103 103 110 114 104 102 102 96 89 78 36 48 41 28 12 14 17 18 16 14 13 14
229 226 220 212 208 203 198 198 199 198 193 188 186 192 195 200 199 198 193 197 206 202 196 185 179 165 157 155 161 160 193 238 278 287 314 340 356 339 355 13 27 37 35 38 31 28 10 21 38 42 39 49 55 60 88 123 144 144 136 118 115 109 87 97 99 105 112 117 107 72 69 22 72 26 26 37 30 9 8 3 2 8 9 8 8
232 230 227 222 219 213 209 207 208 206 199 194 189 191 197 201 204 201 195 196 205 205 201 194 197 197 188 190 201 205 224 242 261 283 302 324 333 336 335 340 350 360 4 11 13 4 8 6 27 31 28 42 48 53 70 102 145 150 140 140 122 114 104 82 104 107 111 115 111 100 79 23 31 39 13 8 8 4 6 2 0 360 358 1 4
233 235 232 228 227 223 219 215 219 216 206 198 194 195 199 204 207 205 204 201 206 213 206 199 205 214 214 215 219 224 236 248 261 281 305 316 322 327 324 325 330 338 346 352 350 347 350 349 24 34 20 27 42 48 54 81 126 151 143 135 125 120 126 115 92 111 117 115 111 93 74 41 28 10 360 355 360 358 355 356 357 359 357 353 356
232 236 238 235 232 228 227 224 225 226 217 208 204 204 204 206 209 211 212 207 206 215 215 208 208 217 218 223 227 237 251 269 283 295 298 307 318 318 317 315 319 326 330 327 323 329 323 334 9 27 359 8 37 43 52 64 106 142 140 135 128 135 141 132 112 91 90 86 89 54 27 23 15 4 353 354 355 354 352 354 357 357 353 354 353
232 236 238 237 232 235 233 230 230 232 231 222 217 214 212 211 212 215 217 215 214 213 215 213 214 221 224 226 236 248 262 279 293 301 313 313 304 307 301 299 301 304 308 310 311 312 312 316 328 355 344 355 36 52 54 74 131 139 130 131 132 138 128 117 98 71 59 60 48 45 1 5 4 354 340 340 348 351 349 353 356 352 348 348 350
232 235 238 239 233 235 236 236 232 232 233 230 225 221 217 217 217 218 222 221 221 215 210 212 219 226 230 234 243 257 273 289 294 300 306 308 304 300 297 291 290 286 290 300 302 302 306 303 307 323 334 337 9 47 69 107 141 134 137 131 130 127 120 108 60 45 39 41 34 15 7 355 352 354 337 334 341 343 344 347 355 348 339 338 340
237 237 237 234 232 236 236 237 236 233 233 233 230 226 222 221 220 220 224 226 223 218 213 216 221 227 233 240 251 265 279 290 298 300 302 306 303 306 302 298 299 297 294 296 297 295 297 300 306 310 319 320 333 2 47 119 160 148 148 143 130 116 107 85 42 29 23 24 19 8 356 355 342 338 329 328 334 337 337 339 348 341 335 335 335
240 239 237 234 230 232 232 233 235 236 237 236 234 231 227 224 224 224 227 226 223 220 218 219 224 230 238 245 259 273 284 292 289 293 300 307 308 313 313 313 313 307 303 300 289 283 279 280 288 298 305 315 331 329 360 164 164 153 149 135 99 76 57 26 15 12 8 10 7 353 357 357 344 331 328 326 329 337 328 328 337 336 335 343 347
239 240 238 233 231 232 231 230 233 236 238 238 236 233 228 227 226 227 229 228 226 224 223 225 228 237 246 255 265 272 280 280 293 311 304 298 306 307 307 311 315 313 306 296 283 269 262 264 270 297 302 311 320 334 5 56 83 114 142 131 110 78 27 9 6 2 358 4 1 354 358 356 339 329 328 327 328 332 333 330 333 335 337 352 4
242 241 234 232 233 232 229 228 229 234 236 234 234 232 230 228 226 227 228 227 227 228 230 232 235 239 250 258 271 274 277 280 306 306 312 313 305 305 307 306 307 311 310 301 285 262 245 252 255 279 297 297 305 327 346 41 66 63 50 42 35 25 24 16 6 9 11 18 11 355 349 347 338 330 327 324 327 335 332 325 331 338 343 348 358
245 237 231 230 233 233 229 229 228 229 232 233 233 232 229 227 228 229 230 229 229 230 232 235 235 238 241 250 266 276 278 292 301 306 310 314 313 306 301 300 303 308 308 307 291 272 257 248 255 258 266 274 265 272 307 54 77 57 22 9 9 11 4 5 11 8 7 9 11 357 338 338 340 331 326 324 331 334 333 333 339 347 350 352 351
244 236 232 232 232 231 230 231 232 231 232 232 229 228 228 228 228 229 228 227 228 231 231 233 234 236 238 245 257 273 271 289 300 306 307 309 315 311 297 298 306 313 312 309 299 281 264 257 253 255 251 276 271 248 209 205 359 43 27 1 354 356 2 12 12 7 2 8 4 357 343 340 346 332 323 330 334 345 342 341 344 349 349 349 355
241 238 234 233 233 233 231 232 232 232 232 231 229 228 228 228 227 226 226 229 230 230 230 227 227 235 242 249 254 262 274 282 300 307 306 306 309 302 297 308 313 317 316 305 288 279 271 263 258 252 250 254 257 255 228 208 211 267 316 321 329 343 353 5 8 12 7 355 353 357 345 342 352 339 326 326 337 350 351 351 348 348 348 350 352
237 236 234 233 232 231 231 231 231 231 233 232 231 230 231 230 233 231 229 229 230 229 226 225 228 238 248 255 256 264 271 287 294 304 305 305 304 298 293 305 311 315 308 297 282 268 262 261 259 247 242 243 231 251 247 245 255 251 319 334 331 333 340 347 348 349 347 344 351 358 1 358 358 348 336 335 341 349 352 356 342 340 342 347 353
234 235 233 234 233 231 231 229 229 229 231 231 230 231 233 235 237 232 225 221 220 224 228 230 239 247 253 258 262 266 267 288 294 300 303 301 299 286 291 303 312 310 298 286 270 259 262 260 247 241 238 230 246 281 278 266 269 275 332 326 326 344 353 350 350 345 341 341 345 350 352 359 354 349 342 336 333 329 351 345 330 340 351 352 354
233 234 235 234 232 230 229 229 228 228 230 230 228 228 229 229 227 226 224 223 226 231 235 240 241 245 252 259 266 262 261 279 292 296 296 297 289 284 291 296 302 307 293 276 265 264 266 262 251 236 233 230 257 289 299 298 291 307 321 319 316 336 353 343 344 349 350 352 356 356 360 6 359 354 349 338 331 337 348 346 348 344 346 350 352
232 232 233 231 228 227 226 227 226 226 225 222 222 219 220 220 224 228 229 231 231 233 237 239 245 249 257 265 269 265 263 273 288 291 294 296 296 290 289 293 296 291 278 271 263 257 263 281 257 234 225 240 270 292 298 296 298 308 314 316 324 340 347 340 332 328 339 351 354 352 356 359 6 6 358 346 334 336 342 347 349 341 346 348 350
233 233 231 229 227 226 225 223 222 223 219 216 216 218 219 222 226 230 231 232 231 234 238 242 248 252 257 262 267 270 261 268 286 291 296 299 298 289 292 290 287 279 269 264 266 257 255 266 278 257 242 249 273 290 299 299 299 304 312 309 318 331 330 321 325 331 328 322 322 328 339 351 354 350 347 348 342 342 345 348 345 346 346 347 345
231 230 229 228 226 224 222 222 220 220 218 218 218 218 221 224 228 231 231 231 233 237 242 246 251 251 255 260 260 270 269 266 278 293 296 301 310 295 289 287 280 271 265 265 262 262 264 258 266 281 279 273 277 288 296 305 303 302 301 305 310 322 307 305 320 328 319 311 316 325 339 342 343 343 339 334 332 336 340 342 342 342 343 343 342
231 231 229 228 227 226 223 222 224 222 220 221 222 221 223 225 229 234 236 236 238 242 250 251 254 256 260 264 265 271 271 275 279 293 297 303 310 310 288 286 271 263 264 270 272 267 262 261 254 276 293 295 294 295 295 305 306 298 300 301 314 298 282 302 326 311 309 317 324 329 332 332 333 332 329 328 329 331 335 337 337 338 340 342 343
234 232 231 228 227 226 224 221 222 218 217 218 219 220 222 226 230 239 240 243 250 256 258 260 262 266 270 277 278 279 281 289 277 289 300 304 308 318 292 282 273 269 272 273 276 271 269 264 263 275 289 290 293 294 300 301 305 293 297 305 310 279 295 315 311 303 310 318 324 324 323 323 324 324 322 321 323 326 329 330 332 334 335 339 344
235 231 228 226 224 225 223 224 219 213 214 218 224 224 227 233 238 241 247 250 256 264 269 270 272 276 280 285 293 301 298 289 303 287 297 304 308 312 317 289 281 276 277 279 281 280 276 274 271 275 284 290 292 296 299 301 294 295 306 307 307 288 296 313 312 312 316 321 321 322 320 317 319 319 316 315 318 320 325 328 330 333 335 337 340
233 229 226 225 225 225 224 221 217 215 217 222 226 226 228 233 238 242 248 254 255 261 263 268 274 280 291 299 305 306 303 300 303 313 297 306 303 309 312 313 289 277 282 283 285 284 281 277 273 280 288 290 293 294 293 291 291 302 306 307 300 298 301 308 317 313 312 312 313 315 315 314 315 315 312 312 315 318 323 nan nan nan nan nan nan
230 227 226 225 225 223 222 220 221 222 223 229 232 234 236 239 240 243 247 252 255 256 260 266 271 276 280 284 285 290 296 299 297 305 317 307 310 308 309 308 303 293 281 284 289 281 271 270 273 278 281 284 286 284 282 291 297 296 301 299 299 298 305 317 318 310 310 311 311 313 313 312 311 311 309 312 nan nan nan nan nan nan nan nan nan
228 228 227 226 226 225 225 226 227 228 232 234 238 239 243 245 244 246 251 253 255 257 258 259 263 261 261 263 266 271 278 281 287 286 293 303 304 310 311 305 301 302 299 269 262 271 274 275 276 277 277 278 279 279 280 281 287 290 295 299 302 305 309 316 317 309 308 308 308 308 307 306 307 nan nan nan nan nan nan nan nan nan nan nan nan
228 228 229 228 227 225 225 225 227 231 235 236 238 241 244 246 249 252 258 259 259 260 260 261 261 260 259 258 259 263 268 271 274 276 280 285 289 292 290 282 283 271 265 267 269 268 271 275 276 277 276 280 276 275 276 280 283 285 291 298 301 305 309 314 314 310 309 307 306 305 305 nan nan nan nan nan nan nan nan nan nan nan nan nan nan
228 226 228 229 228 228 226 227 230 232 236 238 240 244 247 250 253 258 261 262 262 264 266 266 267 268 265 264 263 264 266 267 270 274 279 284 287 287 289 285 280 280 279 276 277 277 273 269 272 274 275 277 278 281 284 286 288 292 296 299 300 301 304 303 302 304 303 300 nan nan nan nan nan nan nan nan nan nan nan nan nan nan nan nan nan
233 230 227 228 228 229 231 233 233 234 237 241 239 235 238 247 253 255 257 259 263 265 266 267 268 269 269 268 269 269 269 270 273 277 278 282 286 286 288 289 286 282 287 281 273 273 276 278 279 280 281 283 283 284 283 285 285 288 293 295 295 297 301 303 306 306 nan nan nan nan nan nan nan nan nan nan nan nan nan nan nan nan nan nan nan
240 238 235 234 232 232 232 234 237 237 240 243 243 241 239 242 238 242 250 250 254 256 258 264 266 268 270 271 274 275 276 275 274 282 281 283 288 290 288 291 291 285 284 286 279 276 280 284 284 284 285 285 287 288 287 287 289 291 291 291 293 294 296 297 nan nan nan nan nan nan nan nan nan nan nan nan nan nan nan nan nan nan nan nan nan
233 235 236 238 236 235 234 235 236 238 239 242 245 246 245 244 242 241 241 241 245 254 259 260 259 267 272 272 273 272 270 270 281 289 287 284 283 285 284 280 280 278 281 280 280 281 281 283 284 284 286 287 288 286 286 288 289 290 291 292 292 293 295 nan nan nan nan nan nan nan nan nan nan nan nan nan nan nan nan nan nan nan nan nan nan
228 230 233 238 239 240 238 236 237 238 239 241 245 248 249 251 249 244 243 244 247 252 254 257 260 264 274 277 274 271 273 274 280 287 291 289 283 279 275 274 275 278 285 283 277 279 280 283 284 284 284 283 282 282 284 285 287 288 290 291 291 293 nan nan nan nan nan nan nan nan nan nan nan nan nan nan nan nan nan nan nan nan nan nan nan
228 229 232 235 238 239 241 241 241 242 243 245 246 248 251 253 256 255 251 249 252 254 254 253 255 256 261 268 277 280 281 281 281 281 283 282 279 275 273 274 275 276 276 272 271 274 275 276 276 277 278 278 278 279 280 282 284 286 287 289 290 nan nan nan nan nan nan nan nan nan nan nan nan nan nan nan nan nan nan nan nan nan nan nan nan
230 230 232 235 237 239 241 242 244 245 247 248 249 252 253 255 257 259 260 259 257 257 258 256 254 254 258 260 268 270 274 278 278 277 277 277 277 274 270 267 270 275 269 271 270 268 269 270 271 272 272 272 273 275 277 278 280 283 285 286 nan nan nan nan nan nan nan nan nan nan nan nan nan nan nan nan nan nan nan nan nan nan nan nan nan
230 232 230 230 234 237 240 243 245 247 250 251 252 253 254 256 257 260 262 263 264 266 267 263 258 253 256 259 259 267 273 274 275 277 277 277 277 275 271 270 270 270 264 265 265 267 267 267 267 267 268 270 271 274 276 278 280 282 284 nan nan nan nan nan nan nan nan nan nan nan nan nan nan nan nan nan nan nan nan nan nan nan nan nan nan
230 231 231 231 233 236 239 242 245 248 251 252 252 253 254 255 256 259 260 260 261 262 260 256 255 254 255 251 251 255 263 269 273 276 279 280 283 281 274 271 270 270 269 266 264 263 264 266 267 267 268 269 272 274 276 278 280 282 nan nan nan nan nan nan nan nan nan nan nan nan nan nan nan nan nan nan nan nan nan nan nan nan nan nan nan
228 229 230 232 233 236 238 241 245 248 252 253 253 253 252 252 252 253 254 255 255 255 255 257 257 257 255 253 253 253 256 261 265 270 275 279 278 264 265 269 270 270 267 265 265 265 264 264 265 268 270 272 273 275 277 279 280 nan nan nan nan nan nan nan nan nan nan nan nan nan nan nan nan nan nan nan nan nan nan nan nan nan nan nan nan
227 228 229 232 235 237 238 239 242 249 251 253 253 253 253 252 251 250 250 250 252 254 255 256 256 256 258 258 258 258 260 263 264 262 263 264 265 264 263 260 260 262 266 265 263 265 266 267 267 269 270 271 273 275 277 nan nan nan nan nan nan nan nan nan nan nan nan nan nan nan nan nan nan nan nan nan nan nan nan nan nan nan nan nan nan
231 235 232 231 236 236 238 239 242 244 248 251 252 253 253 254 254 252 251 251 253 253 255 257 256 258 260 262 263 266 267 266 266 267 266 264 263 265 265 263 264 264 262 264 265 266 268 268 268 268 270 271 273 274 nan nan nan nan nan nan nan nan nan nan nan nan nan nan nan nan nan nan nan nan nan nan nan nan nan nan nan nan nan nan nan
231 233 240 237 239 241 238 240 241 244 246 249 251 252 253 254 255 256 256 257 256 257 261 261 262 261 263 265 266 265 263 263 261 262 259 258 259 260 261 262 263 265 265 265 266 268 268 267 269 271 273 274 276 nan nan nan nan nan nan nan nan nan nan nan nan nan nan nan nan nan nan nan nan nan nan nan nan nan nan nan nan nan nan nan nan
233 235 238 240 238 242 243 242 243 246 248 249 250 251 251 252 252 254 256 257 259 261 260 259 260 259 258 258 259 260 263 264 264 264 264 266 265 265 266 269 269 266 266 266 266 266 267 268 269 271 272 274 nan nan nan nan nan nan nan nan nan nan nan nan nan nan nan nan nan nan nan nan nan nan nan nan nan nan nan nan nan nan nan nan nan
234 236 239 243 246 244 244 243 245 250 252 254 254 254 254 253 253 254 255 258 260 261 261 259 258 258 259 264 264 265 264 264 264 265 266 266 267 267 266 266 267 267 266 265 265 266 266 268 269 271 nan nan nan nan nan nan nan nan nan nan nan nan nan nan nan nan nan nan nan nan nan nan nan nan nan nan nan nan nan nan nan nan nan nan nan
237 238 241 244 244 245 245 246 248 252 257 260 262 261 260 259 258 258 258 258 259 261 261 262 262 262 261 262 266 266 264 264 265 266 265 263 262 264 266 268 268 265 262 261 263 265 265 nan nan nan nan nan nan nan nan nan nan nan nan nan nan nan nan nan nan nan nan nan nan nan nan nan nan nan nan nan nan nan nan nan nan nan nan nan nan
238 241 243 245 246 247 248 249 251 253 255 259 264 266 266 263 262 261 260 260 259 260 261 263 264 264 265 264 264 266 267 268 270 272 270 266 265 266 267 267 266 262 257 257 nan nan nan nan nan nan nan nan nan nan nan nan nan nan nan nan nan nan nan nan nan nan nan nan nan nan nan nan nan nan nan nan nan nan nan nan nan nan nan nan nan
nan 241 244 246 247 248 250 252 255 256 259 259 259 261 265 266 267 265 264 263 262 261 261 262 263 264 263 262 263 264 264 264 264 265 265 268 270 271 270 267 265 263 262 nan nan nan nan nan nan nan nan nan nan nan nan nan nan nan nan nan nan nan nan nan nan nan nan nan nan nan nan nan nan nan nan nan nan nan nan nan nan nan nan nan nan
nan nan 244 247 249 249 249 250 250 253 256 257 257 258 261 264 268 269 268 264 262 261 260 258 257 256 257 258 258 259 261 263 264 265 266 267 270 270 269 268 267 267 267 267 267 265 263 nan nan nan nan nan nan nan nan nan nan nan nan nan nan nan nan nan nan nan nan nan nan nan nan nan nan nan nan nan nan nan nan nan nan nan nan nan nan
nan nan nan nan 251 252 253 253 255 256 257 256 256 257 259 261 265 268 269 267 264 262 261 261 260 260 259 259 259 261 261 261 263 263 264 265 267 269 269 269 269 269 269 269 268 266 nan nan nan nan nan nan nan nan nan nan nan nan nan nan nan nan nan nan nan nan nan nan nan nan nan nan nan nan nan nan nan nan nan nan nan nan nan nan nan
nan nan nan 247 249 250 251 254 257 258 259 259 258 258 259 262 263 266 269 270 267 264 262 262 262 262 263 263 263 263 264 264 265 265 265 266 267 269 269 269 269 269 269 269 nan nan nan nan nan nan nan nan nan nan nan nan nan nan nan nan nan nan nan nan nan nan nan nan nan nan nan nan nan nan nan nan nan nan nan nan nan nan nan nan nan
nan nan 245 246 247 247 250 253 255 258 261 263 262 261 261 263 265 267 268 268 266 261 260 260 260 260 262 263 264 264 265 265 266 267 267 268 269 270 271 270 268 267 267 266 nan nan nan nan nan nan nan nan nan nan nan nan nan nan nan nan nan nan nan nan nan nan nan nan nan nan nan nan nan nan nan nan nan nan nan nan nan nan nan nan nan
nan nan nan 247 247 247 248 250 252 255 258 261 262 263 263 265 268 270 270 269 267 264 262 261 260 261 262 262 263 264 265 266 266 268 268 269 269 269 268 267 266 nan nan nan nan nan nan nan nan nan nan nan nan nan nan nan nan nan nan nan nan nan nan nan nan nan nan nan nan nan nan nan nan nan nan nan nan nan nan nan nan nan nan nan nan
nan nan nan nan nan 245 245 245 248 252 256 259 260 261 262 264 267 270 271 270 270 267 265 265 266 266 265 265 267 267 267 267 268 nan nan nan 266 nan nan nan nan nan nan nan nan nan nan nan nan nan nan nan nan nan nan nan nan nan nan nan nan nan nan nan nan nan nan nan nan nan nan nan nan nan nan nan nan nan nan nan nan nan nan nan nan